Regional Weather Roundup
Issued by NWS

Home | Current Version | Previous Version | Graphics & Text | Print | Product List | Glossary On
Versions: 1 2 3 4 5 6 7 8 9 10 11 12 13 14 15 16 17 18 19 20 21 22 23 24 25 26 27 28 29 30 31 32 33 34 35 36 37 38 39 40 41 42 43 44 45 46 47 48 49 50
129
ASUS45 KBOU 280407
RWRCO

WEATHER ROUNDUP FOR COLORADO
NATIONAL WEATHER SERVICE DENVER/BOULDER CO
1000 PM MDT TUE JUN 27 2017

NOTE: "FAIR" INDICATES FEW OR NO CLOUDS BELOW 12000 FEET WITH NO
SIGNIFICANT WEATHER AND/OR OBSTRUCTIONS TO VISIBILITY.

COZ001>005-013-030-031-280500-
...NORTHWEST COLORADO...

CITY           SKY/WX    TMP DP  RH WIND       PRES   REMARKS
CRAIG          FAIR      68  36  30 SW6       30.00R
HAYDEN         FAIR      66  32  28 S5        30.02R
MEEKER         FAIR      70  36  28 N6        30.01R
RABBIT EARS PA MOCLDY    50  32  50 W6        30.32R
STEAMBOAT SPGS FAIR      65  40  40 E6        30.05R
WALDEN         FAIR      54  36  50 W3        30.14R
$$

COZ006>008-011-280500-
...WEST CENTRAL VALLEYS...

CITY           SKY/WX    TMP DP  RH WIND       PRES   REMARKS
GRAND JUNCTION FAIR      84  24  11 NW3       29.82R
MONTROSE       FAIR      71  23  16 SE7       29.94R
EAGLE          FAIR      75  29  18 W7        30.03R
RIFLE          FAIR      77  25  14 E3        29.90R
DELTA          FAIR      78  11   7 S3        29.87R
NUCLA          FAIR      77   9   7 SW6       29.98R
$$

COZ017>023-064>068-280500-
...SOUTHWEST COLORADO...

CITY           SKY/WX    TMP DP  RH WIND       PRES   REMARKS
DURANGO        FAIR      73  14  10 CALM      30.03R
CORTEZ         FAIR      61  31  32 E7        29.97R
PAGOSA SPRINGS FAIR      67  22  17 CALM      30.12R
TELLURIDE      FAIR      63  13  14 CALM      30.26R
WOLF CREEK PAS FAIR      52  16  24 W12       30.50R
$$

COZ009-010-012-014-032>034-037-058>063-280500-
...CENTRAL COLORADO...

CITY           SKY/WX    TMP DP  RH WIND       PRES   REMARKS
ASPEN          FAIR      58  30  34 SW12      30.09R
BUENA VISTA    FAIR      60  22  23 W8        30.11R
COPPER MTN     FAIR      54  19  26 NW17G30   30.45R
BERTHOUD PASS  FAIR      45  32  61 NW26G41   30.47R
COTTONWOOD PAS FAIR      66   3   8 CALM      30.26R
GUNNISON       FAIR      63  27  25 CALM      30.10
KREMMLING      FAIR      72  32  23 CALM      30.10F
LEADVILLE      FAIR      56  19  23 CALM      30.26R
MONARCH PASS   FAIR      54  18  24 W28       30.53S
SALIDA         FAIR      68  22  17 W12       30.14R
SUNLIGHT       FAIR      55  19  24 W8        30.37R
WILKERSON PASS FAIR      55  14  19 W5        30.41R
$$

COZ069>075-280500-
...SAN LUIS VALLEY/SANGRE DE CRISTO MOUNTAINS...

CITY           SKY/WX    TMP DP  RH WIND       PRES   REMARKS
ALAMOSA        FAIR      58  31  35 SW8       30.07R
DEL NORTE      FAIR      66  22  18 W6        30.12R
LA VETA PASS   FAIR      59  27  29 SW10      30.40R
SAGUACHE       FAIR      61  23  23 NW8       30.11R
$$

COZ035-036-038>040-280500-
...NORTHERN COLORADO FRONT RANGE...

CITY           SKY/WX    TMP DP  RH WIND       PRES   REMARKS
DENVER INTL AP FAIR      71  39  31 NE17      29.89R
DMNS CITY PARK   N/A     73  37  26 NE10G21   29.90R
AURORA         PTCLDY    71  37  28 NE14G23   29.92R
FRONT RANGE AP FAIR      72  37  28 NE9G22    29.92R
ERIE MUNI ARPT FAIR      72  36  26 NE8       29.86R
BOULDER MUN AP FAIR      72  37  28 SW5       29.88R
CENTENNIAL     FAIR      75  34  22 NE7       29.93R
BROOMFIELD     FAIR      73  36  25 NE9G16    29.92R
FORT COLLINS   FAIR      72  41  32 N17       29.84R
LONGMONT       FAIR      72  39  30 CALM      29.86R
$$

COZ041-046-047-076>085-087-088-280500-
...PIKES PEAK/PALMER DIVIDE AND SOUTHERN FOOTHILLS...

CITY           SKY/WX    TMP DP  RH WIND       PRES   REMARKS
COLO. SPRINGS  FAIR      70  36  28 N9        29.94R
A. F. ACADEMY  FAIR      64  36  34 N9        29.97R
SCHRIEVER AFB  FAIR      72  34  25 N10       29.94R
CHEYENNE MTN   FAIR      76  22  13 W3        29.95R
ELLICOTT       FAIR     N/A N/A N/A E9        29.91R
FALCON           N/A     69  30  23 NW7       30.00R
FORT CARSON    FAIR      80  23  12 W9        29.89R
LIMON          FAIR      60  47  61 NW7       29.88R
MONUMENT HILL  FAIR      64  34  32 NE9       30.04R
CANON CITY     CLEAR     79  28  15 W8        29.86R
WALSENBURG     FAIR      66  37  34 W9        29.93R
TRINIDAD       FAIR      69  35  28 SW12      29.91R
$$

COZ042>045-048>051-090-091-280500-
...NORTHEAST COLORADO...

CITY           SKY/WX    TMP DP  RH WIND       PRES   REMARKS
GREELEY ARPT   FAIR      69  43  38 VRB3      29.84R
AKRON          FAIR      72  40  31 N23G30    29.86R
BURLINGTON     FAIR      73  51  46 SE15      29.75R
WRAY           FAIR      77  46  33 W3        29.75R
YUMA           FAIR      73  37  27 N20G26    29.82R
STERLING       FAIR      72  46  40 NE13      29.81R
HOLYOKE        NOT AVBL
FORT MORGAN    FAIR      70  37  30 NE15G21   29.85R
$$

COZ086-089-092>099-280500-
...SOUTHEAST COLORADO...

CITY           SKY/WX    TMP DP  RH WIND       PRES   REMARKS
PUEBLO         FAIR      77  38  24 NW13      29.78R
LA JUNTA       FAIR      84  48  28 S22G29    29.73R
LAMAR          FAIR      86  48  26 SW28G41   29.68S
SPRINGFIELD      N/A     77  53  43 S26G35    29.84R
$$




USA.gov is the U.S. government's official web portal to all federal, state and local government web resources and services.